Location: Gettysburg
(39.8310°N, 77.2310°W)
Time: 01:29:42
(UTC-04:00)

ATLAS 2AS CENTAUR R/B - Visible Passes

Search period start: 30 July 2016 00:00
Search period end: 09 August 2016 00:00
Orbit: 905 x 1307 km, 63.7° (Epoch: 22 July)

Date Brightness Start Highest point End Pass type
(mag) Time Alt. Az. Time Alt. Az. Time Alt. Az.
30 Jul 2.8 01:10:01 10° NW 01:18:07 78° WSW 01:18:13 78° SW visible
30 Jul 4.8 03:03:57 10° WNW 03:05:37 13° W 03:05:37 13° W visible
30 Jul 4.8 22:34:37 10° NNW 22:40:47 23° NNE 22:46:45 10° E visible
31 Jul 3.0 00:25:09 10° NNW 00:33:17 73° NE 00:34:22 65° ESE visible
31 Jul 4.3 02:17:26 10° WNW 02:21:47 23° W 02:21:47 23° W visible
31 Jul 5.0 21:49:57 10° NNW 21:55:08 18° NNE 22:00:13 10° ENE visible
31 Jul 3.5 23:40:23 10° NNW 23:48:17 51° NE 23:50:35 40° E visible
01 Aug 3.7 01:31:52 10° NW 01:37:59 37° W 01:37:59 37° W visible
01 Aug 5.1 21:05:11 10° NNW 21:09:20 14° NNE 21:13:27 10° NE visible
01 Aug 4.0 22:55:42 10° NNW 23:03:05 36° NE 23:06:52 24° E visible
02 Aug 3.1 00:46:40 10° NW 00:54:16 61° WSW 00:54:16 61° WSW visible
02 Aug 4.5 22:11:03 10° NNW 22:17:43 27° NE 22:23:10 13° E visible
03 Aug 2.8 00:01:42 10° NW 00:09:51 90° WSW 00:10:35 76° SSE visible
03 Aug 4.7 01:54:47 10° WNW 01:58:00 17° W 01:58:00 17° W visible
03 Aug 4.8 21:26:24 10° NNW 21:32:11 20° NNE 21:37:49 10° ENE visible
03 Aug 3.2 23:16:53 10° NNW 23:24:57 63° NE 23:26:57 49° ESE visible
04 Aug 4.1 01:08:46 10° NW 01:14:22 29° W 01:14:22 29° W visible
04 Aug 5.0 20:41:42 10° NNW 20:46:28 16° NNE 20:51:10 10° ENE visible
04 Aug 3.7 22:32:09 10° NNW 22:39:52 44° NE 22:43:22 29° E visible
05 Aug 3.4 00:23:23 10° NW 00:30:47 47° WSW 00:30:47 47° WSW visible
05 Aug 4.2 21:47:29 10° NNW 21:54:36 32° NE 21:59:50 16° E visible
05 Aug 2.9 23:38:18 10° NW 23:46:22 72° WSW 23:47:14 66° SSW visible
06 Aug 5.0 01:32:46 10° WNW 01:34:40 12° W 01:34:40 12° W visible
06 Aug 4.5 21:02:50 10° NNW 21:09:10 24° NNE 21:15:17 10° E visible
06 Aug 3.0 22:53:25 10° NNW 23:01:33 78° NE 23:03:45 52° SE visible
07 Aug 4.4 00:45:54 10° WNW 00:51:11 22° W 00:51:11 22° W visible
07 Aug 3.4 22:08:38 10° NNW 22:16:35 54° NE 22:20:18 31° ESE visible
08 Aug 3.8 00:00:13 10° NW 00:07:19 36° WSW 00:07:44 36° WSW visible
08 Aug 3.9 21:23:55 10° NNW 21:31:25 38° NE 21:36:53 17° ESE visible
08 Aug 3.2 23:14:58 10° NW 23:22:48 56° WSW 23:24:19 49° SSW visible
